Time,TemperatureF,DewpointF,PressureIn,WindDirection,WindDirectionDegrees,WindSpeedMPH,WindSpeedGustMPH,Humidity,HourlyPrecipIn,Conditions,Clouds,dailyrainin,SoftwareType,DateUTC
2013-04-14 00:02:00,54.8,20.0,29.93,NNE,19,4.0,13.0,26,0.00,,,0.00,weatherlink.com 1.10,2013-04-14 04:02:00,
2013-04-14 00:17:00,54.4,20.0,29.93,SSE,149,10.0,15.0,26,0.00,,,0.00,weatherlink.com 1.10,2013-04-14 04:17:00,
2013-04-14 00:32:00,54.0,21.0,29.94,SSE,157,7.0,18.0,27,0.00,,,0.00,weatherlink.com 1.10,2013-04-14 04:32:00,
2013-04-14 00:47:00,53.6,21.0,29.94,SSE,165,8.0,16.0,28,0.00,,,0.00,weatherlink.com 1.10,2013-04-14 04:47:00,
2013-04-14 01:03:00,53.2,22.0,29.95,SE,127,2.0,14.0,29,0.00,,,0.00,weatherlink.com 1.10,2013-04-14 05:03:00,
2013-04-14 01:18:00,52.8,21.0,29.95,SSE,151,5.0,10.0,29,0.00,,,0.00,weatherlink.com 1.10,2013-04-14 05:18:00,
2013-04-14 01:33:00,52.8,21.0,29.95,South,175,8.0,12.0,29,0.00,,,0.00,weatherlink.com 1.10,2013-04-14 05:33:00,
2013-04-14 01:48:00,52.6,21.0,29.95,South,172,8.0,15.0,29,0.00,,,0.00,weatherlink.com 1.10,2013-04-14 05:48:00,
2013-04-14 02:03:00,52.3,22.0,29.96,SSE,150,5.0,11.0,30,0.00,,,0.00,weatherlink.com 1.10,2013-04-14 06:03:00,
2013-04-14 02:18:00,52.0,22.0,29.96,SW,215,0.0,9.0,31,0.00,,,0.00,weatherlink.com 1.10,2013-04-14 06:18:00,
2013-04-14 02:33:00,50.0,22.0,29.96,WSW,239,2.0,8.0,33,0.00,,,0.00,weatherlink.com 1.10,2013-04-14 06:33:00,
2013-04-14 02:48:00,48.6,22.0,29.95,SW,217,1.0,2.0,35,0.00,,,0.00,weatherlink.com 1.10,2013-04-14 06:48:00,
2013-04-14 03:03:00,48.3,22.0,29.96,SSW,199,0.0,3.0,35,0.00,,,0.00,weatherlink.com 1.10,2013-04-14 07:03:00,
2013-04-14 03:18:00,48.3,22.0,29.96,SSW,206,1.0,3.0,36,0.00,,,0.00,weatherlink.com 1.10,2013-04-14 07:18:00,
2013-04-14 03:33:00,47.8,22.0,29.96,South,191,2.0,3.0,37,0.00,,,0.00,weatherlink.com 1.10,2013-04-14 07:33:00,
2013-04-14 03:48:00,49.7,24.0,29.96,WSW,240,1.0,6.0,36,0.00,,,0.00,weatherlink.com 1.10,2013-04-14 07:48:00,
2013-04-14 04:03:00,50.3,25.0,29.97,SW,225,3.0,11.0,37,0.00,,,0.00,weatherlink.com 1.10,2013-04-14 08:03:00,
2013-04-14 04:18:00,50.5,25.0,29.97,SW,225,7.0,16.0,37,0.00,,,0.00,weatherlink.com 1.10,2013-04-14 08:18:00,
2013-04-14 04:33:00,50.5,25.0,29.97,SW,215,11.0,12.0,37,0.00,,,0.00,weatherlink.com 1.10,2013-04-14 08:33:00,
2013-04-14 04:48:00,50.4,25.0,29.98,SW,234,8.0,15.0,38,0.00,,,0.00,weatherlink.com 1.10,2013-04-14 08:48:00,
2013-04-14 05:03:00,50.0,26.0,29.97,SW,216,6.0,12.0,39,0.00,,,0.00,weatherlink.com 1.10,2013-04-14 09:03:00,
2013-04-14 05:18:00,50.0,26.0,29.97,WSW,246,6.0,12.0,40,0.00,,,0.00,weatherlink.com 1.10,2013-04-14 09:18:00,
2013-04-14 05:33:00,49.9,26.0,29.98,SSW,194,6.0,13.0,40,0.00,,,0.00,weatherlink.com 1.10,2013-04-14 09:33:00,
2013-04-14 05:48:00,49.9,26.0,29.99,SSE,161,5.0,12.0,40,0.00,,,0.00,weatherlink.com 1.10,2013-04-14 09:48:00,
2013-04-14 06:03:00,49.8,26.0,29.99,SSW,205,3.0,11.0,40,0.00,,,0.00,weatherlink.com 1.10,2013-04-14 10:03:00,
2013-04-14 06:18:00,49.7,27.0,29.99,WSW,238,6.0,15.0,41,0.00,,,0.00,weatherlink.com 1.10,2013-04-14 10:18:00,
2013-04-14 06:33:00,49.7,27.0,30.00,WSW,243,6.0,11.0,41,0.00,,,0.00,weatherlink.com 1.10,2013-04-14 10:33:00,
2013-04-14 06:48:00,49.6,27.0,30.01,SW,214,7.0,12.0,42,0.00,,,0.00,weatherlink.com 1.10,2013-04-14 10:48:00,
2013-04-14 07:03:00,49.6,27.0,30.02,SW,221,5.0,14.0,42,0.00,,,0.00,weatherlink.com 1.10,2013-04-14 11:03:00,
2013-04-14 07:18:00,49.7,27.0,30.02,West,279,2.0,12.0,42,0.00,,,0.00,weatherlink.com 1.10,2013-04-14 11:18:00,
2013-04-14 07:33:00,50.1,28.0,30.03,SW,218,7.0,11.0,42,0.00,,,0.00,weatherlink.com 1.10,2013-04-14 11:33:00,
2013-04-14 07:48:00,50.4,28.0,30.03,SSW,201,3.0,12.0,42,0.00,,,0.00,weatherlink.com 1.10,2013-04-14 11:48:00,
2013-04-14 08:03:00,50.6,28.0,30.03,SW,217,6.0,13.0,42,0.00,,,0.00,weatherlink.com 1.10,2013-04-14 12:03:00,
2013-04-14 08:18:00,51.2,28.0,30.04,ENE,58,3.0,16.0,41,0.00,,,0.00,weatherlink.com 1.10,2013-04-14 12:18:00,
2013-04-14 08:33:00,51.0,29.0,30.05,SSW,192,6.0,16.0,43,0.00,,,0.00,weatherlink.com 1.10,2013-04-14 12:33:00,
2013-04-14 08:48:00,51.2,29.0,30.04,SW,215,5.0,8.0,43,0.00,,,0.00,weatherlink.com 1.10,2013-04-14 12:48:00,
2013-04-14 09:03:00,51.4,29.0,30.05,SSW,206,6.0,12.0,43,0.00,,,0.00,weatherlink.com 1.10,2013-04-14 13:03:00,
2013-04-14 09:19:00,52.5,29.0,30.05,SSW,205,1.0,8.0,41,0.00,,,0.00,weatherlink.com 1.10,2013-04-14 13:19:00,
2013-04-14 09:34:00,53.2,29.0,30.05,West,264,1.0,5.0,40,0.00,,,0.00,weatherlink.com 1.10,2013-04-14 13:34:00,
2013-04-14 09:49:00,53.9,29.0,30.05,WSW,257,3.0,5.0,39,0.00,,,0.00,weatherlink.com 1.10,2013-04-14 13:49:00,
2013-04-14 10:04:00,54.2,30.0,30.05,East,95,5.0,6.0,40,0.00,,,0.00,weatherlink.com 1.10,2013-04-14 14:04:00,
2013-04-14 10:19:00,54.8,29.0,30.05,SSW,192,1.0,6.0,38,0.00,,,0.00,weatherlink.com 1.10,2013-04-14 14:19:00,
2013-04-14 10:34:00,55.6,29.0,30.04,SE,143,5.0,7.0,36,0.00,,,0.00,weatherlink.com 1.10,2013-04-14 14:34:00,
2013-04-14 10:49:00,55.5,30.0,30.05,NW,310,2.0,11.0,38,0.00,,,0.00,weatherlink.com 1.10,2013-04-14 14:49:00,
2013-04-14 11:04:00,56.1,31.0,30.05,ENE,78,4.0,5.0,38,0.00,,,0.00,weatherlink.com 1.10,2013-04-14 15:04:00,
2013-04-14 11:19:00,56.8,31.0,30.06,NNW,340,4.0,9.0,38,0.00,,,0.00,weatherlink.com 1.10,2013-04-14 15:19:00,
2013-04-14 11:34:00,57.3,31.0,30.06,NE,51,4.0,7.0,37,0.00,,,0.00,weatherlink.com 1.10,2013-04-14 15:34:00,
2013-04-14 11:49:00,57.7,33.0,30.05,ENE,76,1.0,6.0,39,0.00,,,0.00,weatherlink.com 1.10,2013-04-14 15:49:00,
2013-04-14 12:04:00,57.7,33.0,30.05,NNE,19,2.0,9.0,40,0.00,,,0.00,weatherlink.com 1.10,2013-04-14 16:04:00,
2013-04-14 12:19:00,58.2,35.0,30.04,SW,225,4.0,5.0,42,0.00,,,0.00,weatherlink.com 1.10,2013-04-14 16:19:00,
2013-04-14 12:34:00,59.4,34.0,30.04,NE,34,6.0,9.0,39,0.00,,,0.00,weatherlink.com 1.10,2013-04-14 16:34:00,
2013-04-14 12:49:00,59.3,35.0,30.03,North,11,2.0,8.0,41,0.00,,,0.00,weatherlink.com 1.10,2013-04-14 16:49:00,
2013-04-14 13:04:00,60.3,35.0,30.03,North,11,4.0,7.0,39,0.00,,,0.00,weatherlink.com 1.10,2013-04-14 17:04:00,
2013-04-14 13:19:00,60.0,35.0,30.03,NE,54,2.0,6.0,39,0.00,,,0.00,weatherlink.com 1.10,2013-04-14 17:19:00,
2013-04-14 13:34:00,60.7,35.0,30.03,NW,313,1.0,9.0,39,0.00,,,0.00,weatherlink.com 1.10,2013-04-14 17:34:00,
2013-04-14 13:49:00,61.2,35.0,30.02,NE,38,1.0,9.0,37,0.00,,,0.00,weatherlink.com 1.10,2013-04-14 17:49:00,
2013-04-14 14:04:00,63.0,34.0,30.02,WNW,298,2.0,7.0,34,0.00,,,0.00,weatherlink.com 1.10,2013-04-14 18:04:00,
2013-04-14 14:19:00,63.7,34.0,30.02,NNE,17,1.0,5.0,33,0.00,,,0.00,weatherlink.com 1.10,2013-04-14 18:19:00,
2013-04-14 14:34:00,65.0,35.0,30.02,SW,217,4.0,10.0,33,0.00,,,0.00,weatherlink.com 1.10,2013-04-14 18:34:00,
2013-04-14 14:49:00,66.1,35.0,30.01,North,355,1.0,4.0,32,0.00,,,0.00,weatherlink.com 1.10,2013-04-14 18:49:00,
2013-04-14 15:04:00,66.5,36.0,30.00,SW,232,2.0,10.0,32,0.00,,,0.00,weatherlink.com 1.10,2013-04-14 19:04:00,
2013-04-14 15:19:00,66.8,37.0,30.00,North,360,1.0,5.0,34,0.00,,,0.00,weatherlink.com 1.10,2013-04-14 19:19:00,
2013-04-14 15:34:00,66.4,38.0,30.00,NE,43,4.0,6.0,35,0.00,,,0.00,weatherlink.com 1.10,2013-04-14 19:34:00,
2013-04-14 15:49:00,66.0,37.0,29.99,NE,40,3.0,7.0,34,0.00,,,0.00,weatherlink.com 1.10,2013-04-14 19:49:00,
2013-04-14 16:04:00,64.9,36.0,29.99,NE,46,5.0,10.0,35,0.00,,,0.00,weatherlink.com 1.10,2013-04-14 20:04:00,
2013-04-14 16:19:00,64.4,37.0,29.99,NE,42,6.0,11.0,37,0.00,,,0.00,weatherlink.com 1.10,2013-04-14 20:19:00,
2013-04-14 16:34:00,64.7,37.0,29.98,NE,44,5.0,8.0,36,0.00,,,0.00,weatherlink.com 1.10,2013-04-14 20:34:00,
2013-04-14 16:49:00,65.3,37.0,29.98,NNE,16,3.0,8.0,35,0.00,,,0.00,weatherlink.com 1.10,2013-04-14 20:49:00,
2013-04-14 17:05:00,65.7,36.0,29.98,NE,34,1.0,9.0,34,0.00,,,0.00,weatherlink.com 1.10,2013-04-14 21:05:00,
2013-04-14 17:20:00,65.3,38.0,29.99,SSE,155,0.0,10.0,36,0.00,,,0.00,weatherlink.com 1.10,2013-04-14 21:20:00,
2013-04-14 17:35:00,65.1,37.0,29.99,NE,48,3.0,7.0,36,0.00,,,0.00,weatherlink.com 1.10,2013-04-14 21:35:00,
2013-04-14 17:50:00,65.1,37.0,29.98,NE,44,3.0,7.0,36,0.00,,,0.00,weatherlink.com 1.10,2013-04-14 21:50:00,
2013-04-14 18:05:00,65.2,37.0,29.99,East,80,2.0,8.0,36,0.00,,,0.00,weatherlink.com 1.10,2013-04-14 22:05:00,
2013-04-14 18:20:00,64.9,37.0,29.99,SSE,154,0.0,5.0,36,0.00,,,0.00,weatherlink.com 1.10,2013-04-14 22:20:00,
2013-04-14 18:35:00,64.3,37.0,30.00,NE,41,5.0,8.0,36,0.00,,,0.00,weatherlink.com 1.10,2013-04-14 22:35:00,
2013-04-14 18:50:00,63.8,38.0,30.00,ENE,71,0.0,5.0,38,0.00,,,0.00,weatherlink.com 1.10,2013-04-14 22:50:00,
2013-04-14 19:05:00,63.4,38.0,30.00,NE,45,3.0,6.0,39,0.00,,,0.00,weatherlink.com 1.10,2013-04-14 23:05:00,
2013-04-14 19:20:00,62.5,38.0,30.01,NE,44,4.0,5.0,40,0.00,,,0.00,weatherlink.com 1.10,2013-04-14 23:20:00,
2013-04-14 19:35:00,61.7,38.0,30.00,ENE,60,2.0,3.0,41,0.00,,,0.00,weatherlink.com 1.10,2013-04-14 23:35:00,
2013-04-14 19:50:00,60.9,37.0,30.00,South,184,2.0,5.0,42,0.00,,,0.00,weatherlink.com 1.10,2013-04-14 23:50:00,
2013-04-14 20:05:00,60.3,37.0,30.01,NE,50,2.0,3.0,42,0.00,,,0.00,weatherlink.com 1.10,2013-04-15 00:05:00,
2013-04-14 20:20:00,59.8,36.0,30.01,NNE,31,1.0,3.0,42,0.00,,,0.00,weatherlink.com 1.10,2013-04-15 00:20:00,
2013-04-14 20:35:00,59.6,36.0,30.01,NE,36,1.0,2.0,42,0.00,,,0.00,weatherlink.com 1.10,2013-04-15 00:35:00,
2013-04-14 20:50:00,59.3,37.0,30.02,WNW,284,0.0,3.0,43,0.00,,,0.00,weatherlink.com 1.10,2013-04-15 00:50:00,
2013-04-14 21:05:00,59.3,36.0,30.02,NE,55,2.0,3.0,42,0.00,,,0.00,weatherlink.com 1.10,2013-04-15 01:05:00,
2013-04-14 21:20:00,59.5,36.0,30.02,ESE,123,1.0,5.0,42,0.00,,,0.00,weatherlink.com 1.10,2013-04-15 01:20:00,
2013-04-14 21:35:00,59.2,36.0,30.02,East,82,1.0,4.0,42,0.00,,,0.00,weatherlink.com 1.10,2013-04-15 01:35:00,
2013-04-14 21:50:00,59.2,36.0,30.02,NE,50,1.0,5.0,42,0.00,,,0.00,weatherlink.com 1.10,2013-04-15 01:50:00,
2013-04-14 22:05:00,59.7,36.0,30.02,NE,48,5.0,10.0,42,0.00,,,0.00,weatherlink.com 1.10,2013-04-15 02:05:00,
2013-04-14 22:20:00,59.3,37.0,30.02,NNE,28,2.0,8.0,44,0.00,,,0.00,weatherlink.com 1.10,2013-04-15 02:20:00,
2013-04-14 22:35:00,58.5,37.0,30.02,NE,42,3.0,12.0,45,0.00,,,0.00,weatherlink.com 1.10,2013-04-15 02:35:00,
2013-04-14 22:50:00,57.9,38.0,30.02,NNE,26,6.0,9.0,47,0.00,,,0.00,weatherlink.com 1.10,2013-04-15 02:50:00,
2013-04-14 23:04:00,57.8,38.0,30.02,ENE,74,3.0,8.0,48,0.00,,,0.00,weatherlink.com 1.10,2013-04-15 03:04:00,
2013-04-14 23:20:00,57.5,38.0,30.03,NE,53,6.0,10.0,49,0.00,,,0.00,weatherlink.com 1.10,2013-04-15 03:20:00,
2013-04-14 23:35:00,57.2,38.0,30.03,ENE,57,4.0,8.0,49,0.00,,,0.00,weatherlink.com 1.10,2013-04-15 03:35:00,
2013-04-14 23:50:00,56.9,39.0,30.04,East,99,3.0,3.0,51,0.00,,,0.00,weatherlink.com 1.10,2013-04-15 03:50:00,